Location: Newark
(43.0000°N, 1.6781°W)
Time: 18:46:00
(UTC+00:00)

Courier 1B Rocket - Pass Details

Date: 20 April 2021
Orbit: 920 x 1202 km, 28.3° (Epoch: 13 May)

Event Time Altitude Azimuth Distance (km) Brightness Sun altitude
Rises 20:43:50 0° 238° (WSW) 3,721 8.3 -18.4°
Reaches altitude 10° 20:47:00 10° 224° (SW) 2,819 7.5 -18.9°
Maximum altitude 20:52:16 23° 174° (S) 2,078 6.3 -19.7°
Enters shadow 20:52:47 23° 168° (SSE) 2,094 6.3 -19.7°
